Hourly Data Report for November 19, 2005

TORONTO CITY
ONTARIO

43°40'00.000" N
79°24'00.000" W
112.50 m
6158355
71508
XTO

Download Data

Hourly Data (November 2005)
Hourly Data Report for November 19, 2005
TIME
LST
Temp Definition
°C
Dew Point Definition
°C
Rel Hum Definition
%
Precip. Amount Definition
mm

Wind Dir Definition
10's deg

Wind Spd Definition
km/h
Visibility Definition
km
Stn Press Definition
kPa
Hmdx Definition


Wind Chill Definition


Weather Definition


00:00 0.5 -3.7 73   LegendMM LegendMM   100.74     LegendNANA
01:00 0.4 -3.7 74   LegendMM LegendMM   100.70     LegendNANA
02:00 0.9 -3.4 73   LegendMM LegendMM   100.71     LegendNANA
03:00 0.9 -3.6 72   LegendMM LegendMM   100.72     LegendNANA
04:00 1.6 -3.0 71   LegendMM LegendMM   100.71     LegendNANA
05:00 1.9 -3.1 69   LegendMM LegendMM   100.74     LegendNANA
06:00 1.8 -3.1 70   LegendMM LegendMM   100.75     LegendNANA
07:00 2.4 -3.0 67   LegendMM LegendMM   100.76     LegendNANA
08:00 2.8 -2.0 71   LegendMM LegendMM   100.74     LegendNANA
09:00 3.3 -2.1 68   LegendMM LegendMM   100.76     LegendNANA
10:00 3.9 -1.1 70   LegendMM LegendMM   100.73     LegendNANA
11:00 5.4 0.8 72   LegendMM LegendMM   100.71     LegendNANA
12:00 6.2 2.4 77   LegendMM LegendMM   100.65     LegendNANA
13:00 6.8 1.6 69   LegendMM LegendMM   100.60     LegendNANA
14:00 7.4 1.7 67   LegendMM LegendMM   100.56     LegendNANA
15:00 7.4 1.9 68   LegendMM LegendMM   100.53     LegendNANA
16:00 7.2 1.8 69   LegendMM LegendMM   100.50     LegendNANA
17:00 6.8 1.8 70   LegendMM LegendMM   100.50     LegendNANA
18:00 6.8 1.6 69   LegendMM LegendMM   100.48     LegendNANA
19:00 6.5 2.3 74   LegendMM LegendMM   100.44     LegendNANA
20:00 6.3 2.1 74   LegendMM LegendMM   100.42     LegendNANA
21:00 6.1 2.9 80   LegendMM LegendMM   100.40     LegendNANA
22:00 7.0 1.8 69   LegendMM LegendMM   100.41     LegendNANA
23:00 6.9 1.4 68   LegendMM LegendMM   100.45     LegendNANA

Notes on Data Quality.

Legend

  • E = Estimated
  • M = Missing
  • NA = Not Available*
  • [empty] = Indicates an unobserved value
Date modified: